Wahoo, NE

4:47 AM CST on February 27, 2017 (GMT -0600)
Wahoo Municipal

Weather History for KAHQ - June, 2013

Change the Weather History Date:

Monday, June 3, 2013

  Actual Average Record
Temperature  
Mean Temperature 62 °F -  
Max Temperature 77 °F 80 °F 94 °F (1968)
Min Temperature 47 °F 53 °F 39 °F (1969)
Degree Days  
Heating Degree Days 3    
Growing Degree Days 12 (Base 50)    
Moisture  
Dew Point 47 °F    
Average Humidity 58    
Maximum Humidity 89    
Minimum Humidity 31    
Precipitation  
Precipitation 0.00 in - - ()
Sea Level Pressure  
Sea Level Pressure 29.93 in    
Wind  
Wind Speed 11 mph (SE)    
Max Wind Speed 29 mph    
Max Gust Speed 36 mph    
Visibility 10 miles    
Events      
Averages and records for this station are not official NWS values.
T = Trace of Precipitation, MM = Missing Value Source: NWS Daily Summary

Daily Weather History Graph

Daily Weather History Graph

Search for Another Location

Airport or City:

Trip Planner

Search our weather history database for the weather conditions in past years. The results will help you decide how hot, cold, wet, or windy it might be!

Date:

Astronomy

Jun. 03, 2013 Rise Set
Actual Time 5:54 AM CDT 8:54 PM CDT
Civil Twilight 5:21 AM CDT 9:27 PM CDT
Nautical Twilight 4:39 AM CDT 10:10 PM CDT
Astronomical Twilight 3:50 AM CDT 10:59 PM CDT
Moon 2:55 AM CDT (6/3) 4:24 PM CDT (6/3)
Length of Visible Light 16h 06m
Length of Day
14h 59m
Waning Crescent, 22% of the Moon is Illuminated
Jun 3
Waning Crescent
Jun 8
New
Jun 16
First Quarter
Jun 23
Full
Jun 29
Last Quarter

Hourly Weather History & Observations

Time (CDT) Temp. Dew Point Humidity Pressure Visibility Wind Dir Wind Speed Gust Speed Precip Events Conditions
12:15 AM 54.0 °F 46.8 °F 77% 30.02 in 10.0 mi SE 4.6 mph - N/A   Clear
12:35 AM 53.2 °F 46.4 °F 78% 30.02 in 10.0 mi SE 4.6 mph - N/A   Clear
12:55 AM 53.1 °F 46.6 °F 79% 30.02 in 10.0 mi ESE 5.8 mph - N/A   Clear
1:15 AM 52.7 °F 46.2 °F 79% 30.02 in 10.0 mi SE 5.8 mph - N/A   Clear
1:35 AM 52.7 °F 46.4 °F 79% 30.02 in 10.0 mi ESE 4.6 mph - N/A   Clear
1:55 AM 51.8 °F 45.9 °F 80% 30.02 in 10.0 mi ESE 5.8 mph - N/A   Clear
2:15 AM 51.1 °F 45.9 °F 82% 30.01 in 10.0 mi ESE 5.8 mph - N/A   Clear
2:35 AM 51.8 °F 46.0 °F 81% 30.01 in 10.0 mi SE 6.9 mph - N/A   Clear
2:55 AM 50.7 °F 45.5 °F 82% 30.02 in 10.0 mi SSE 6.9 mph - N/A   Clear
3:15 AM 50.2 °F 45.7 °F 85% 30.02 in 10.0 mi South 4.6 mph - N/A   Clear
3:35 AM 49.8 °F 45.7 °F 86% 30.03 in 10.0 mi South 4.6 mph - N/A   Clear
3:55 AM 50.4 °F 46.0 °F 85% 30.03 in 10.0 mi South 3.5 mph - N/A   Clear
4:15 AM 49.3 °F 45.3 °F 86% 30.03 in 10.0 mi SSE 3.5 mph - N/A   Clear
4:35 AM 48.9 °F 45.1 °F 87% 30.03 in 10.0 mi SSE 4.6 mph - N/A   Clear
4:55 AM 48.6 °F 44.8 °F 87% 30.04 in 10.0 mi SE 4.6 mph - N/A   Clear
5:15 AM 48.2 °F 44.6 °F 87% 30.04 in 10.0 mi SSE 3.5 mph - N/A   Clear
5:35 AM 48.2 °F 44.6 °F 87% 30.04 in 10.0 mi SSE 4.6 mph - N/A   Clear
5:55 AM 48.0 °F 44.4 °F 87% 30.04 in 10.0 mi SE 4.6 mph - N/A   Clear
6:15 AM 47.7 °F 44.6 °F 89% 30.04 in 10.0 mi SE 5.8 mph - N/A   Clear
6:35 AM 49.5 °F 46.2 °F 89% 30.02 in 10.0 mi SE 6.9 mph - N/A   Clear
6:55 AM 51.4 °F 47.3 °F 86% 30.02 in 10.0 mi SE 6.9 mph - N/A   Clear
7:15 AM 52.9 °F 47.7 °F 82% 30.02 in 10.0 mi SSE 6.9 mph - N/A   Clear
7:35 AM 54.5 °F 48.6 °F 80% 30.02 in 10.0 mi SSE 9.2 mph - N/A   Clear
7:55 AM 56.5 °F 49.1 °F 76% 30.01 in 10.0 mi SSE 8.1 mph - N/A   Clear
8:15 AM 58.6 °F 49.5 °F 72% 30.01 in 10.0 mi South 12.7 mph 16.1 mph N/A   Clear
8:35 AM 59.9 °F 49.5 °F 68% 30.00 in 10.0 mi SSE 13.8 mph - N/A   Clear
8:55 AM 60.8 °F 48.7 °F 64% 30.00 in 10.0 mi SSE 17.3 mph 21.9 mph N/A   Clear
9:15 AM 62.6 °F 48.4 °F 60% 30.00 in 10.0 mi SSE 16.1 mph - N/A   Clear
9:35 AM 63.5 °F 47.5 °F 56% 29.99 in 10.0 mi SSE 18.4 mph 25.3 mph N/A   Clear
9:55 AM 64.0 °F 47.1 °F 54% 29.99 in 10.0 mi SSE 19.6 mph - N/A   Clear
10:15 AM 65.3 °F 47.5 °F 52% 29.98 in 10.0 mi SSE 18.4 mph 24.2 mph N/A   Clear
10:35 AM 65.8 °F 46.9 °F 50% 29.98 in 10.0 mi SE 19.6 mph 25.3 mph N/A   Clear
10:55 AM 66.4 °F 46.0 °F 48% 29.98 in 10.0 mi SSE 19.6 mph 28.8 mph N/A   Clear
11:15 AM 67.3 °F 46.2 °F 47% 29.97 in 10.0 mi SSE 19.6 mph 26.5 mph N/A   Clear
11:35 AM 68.0 °F 46.9 °F 47% 29.96 in 10.0 mi SSE 19.6 mph 27.6 mph N/A   Clear
11:55 AM 68.5 °F 48.0 °F 48% 29.95 in 10.0 mi SE 19.6 mph 27.6 mph N/A   Clear
12:15 PM 69.3 °F 47.5 °F 46% 29.94 in 10.0 mi SE 24.2 mph 31.1 mph N/A   Clear
12:35 PM 69.8 °F 46.6 °F 43% 29.94 in 10.0 mi SE 23.0 mph 27.6 mph N/A   Clear
12:55 PM 70.5 °F 46.4 °F 42% 29.93 in 10.0 mi SSE 23.0 mph 29.9 mph N/A   Clear
1:15 PM 71.2 °F 46.2 °F 41% 29.92 in 10.0 mi SSE 19.6 mph 29.9 mph N/A   Clear
1:35 PM 72.0 °F 45.9 °F 39% 29.91 in 10.0 mi SE 21.9 mph 26.5 mph N/A   Clear
1:55 PM 72.5 °F 45.5 °F 38% 29.89 in 5.0 mi SE 21.9 mph 33.4 mph N/A   Haze
2:15 PM 73.2 °F 45.9 °F 38% 29.88 in 10.0 mi SE 25.3 mph 31.1 mph N/A   Clear
2:35 PM 73.8 °F 45.0 °F 36% 29.87 in 10.0 mi SE 23.0 mph 31.1 mph N/A   Clear
2:55 PM 74.7 °F 44.1 °F 33% 29.86 in 10.0 mi SE 24.2 mph 33.4 mph N/A   Clear
3:15 PM 75.0 °F 43.5 °F 32% 29.85 in 10.0 mi SE 28.8 mph 35.7 mph N/A   Clear
3:35 PM 75.6 °F 42.6 °F 31% 29.85 in 10.0 mi SE 24.2 mph 31.1 mph N/A   Clear
3:55 PM 75.9 °F 43.2 °F 31% 29.84 in 10.0 mi SE 24.2 mph 33.4 mph N/A   Clear
4:15 PM 76.8 °F 43.9 °F 31% 29.84 in 10.0 mi SSE 24.2 mph 32.2 mph N/A   Clear
4:35 PM 77.0 °F 44.8 °F 32% 29.83 in 10.0 mi SE 20.7 mph 31.1 mph N/A   Clear
4:55 PM 77.0 °F 44.4 °F 31% 29.83 in 10.0 mi SSE 26.5 mph 32.2 mph N/A   Clear
5:15 PM 77.0 °F 45.0 °F 32% 29.82 in 10.0 mi SSE 26.5 mph 32.2 mph N/A   Clear
5:35 PM 77.0 °F 46.6 °F 34% 29.81 in 10.0 mi SE 26.5 mph 35.7 mph N/A   Clear
5:55 PM 76.6 °F 47.3 °F 35% 29.82 in 10.0 mi SSE 23.0 mph 35.7 mph N/A   Clear
6:15 PM 77.0 °F 47.1 °F 35% 29.82 in 10.0 mi SE 26.5 mph 31.1 mph N/A   Clear
6:35 PM 76.6 °F 46.6 °F 34% 29.82 in 10.0 mi SE 23.0 mph 29.9 mph N/A   Clear
6:55 PM 76.1 °F 47.1 °F 36% 29.82 in 10.0 mi SSE 19.6 mph 29.9 mph N/A   Clear
7:15 PM 75.7 °F 47.5 °F 37% 29.81 in 10.0 mi SE 21.9 mph - N/A   Clear
7:35 PM 75.2 °F 48.0 °F 38% 29.82 in 10.0 mi SE 23.0 mph 29.9 mph N/A   Clear
7:55 PM 74.3 °F 48.6 °F 40% 29.83 in 10.0 mi SE 19.6 mph 26.5 mph N/A   Clear
8:15 PM 73.4 °F 49.1 °F 42% 29.84 in 10.0 mi SSE 18.4 mph 24.2 mph N/A   Clear
8:35 PM 72.5 °F 49.3 °F 44% 29.85 in 10.0 mi SSE 13.8 mph - N/A   Clear
8:55 PM 71.6 °F 50.0 °F 46% 29.85 in 10.0 mi SSE 13.8 mph - N/A   Clear
9:15 PM 69.8 °F 50.5 °F 50% 29.85 in 10.0 mi SSE 10.4 mph - N/A   Clear
9:35 PM 68.4 °F 51.3 °F 54% 29.85 in 10.0 mi SE 12.7 mph - N/A   Clear
9:55 PM 68.4 °F 51.8 °F 55% 29.85 in 10.0 mi SE 11.5 mph - N/A   Clear
10:15 PM 67.6 °F 52.0 °F 57% 29.86 in 10.0 mi SE 9.2 mph - N/A   Clear
10:35 PM 65.8 °F 52.0 °F 61% 29.85 in 10.0 mi ESE 11.5 mph - N/A   Clear
10:55 PM 65.3 °F 52.3 °F 63% 29.86 in 10.0 mi ESE 10.4 mph - N/A   Clear
11:15 PM 64.4 °F 53.1 °F 67% 29.87 in 10.0 mi ESE 8.1 mph - N/A   Clear
11:35 PM 63.9 °F 53.8 °F 70% 29.88 in 10.0 mi SE 8.1 mph - N/A   Clear
11:55 PM 63.5 °F 54.0 °F 71% 29.91 in 10.0 mi SE 6.9 mph - N/A   Clear